Latest Weather Observations for Oakey

IDQ60801

Issued at 1:32 pm EST Wednesday 22 April 2015 (issued every 30 minutes, with the page automatically refreshed every 10 minutes)

About weather observations | Map of weather stations | Latest weather observations for QLD | Other Formats
Station Details ID: 041359 Name: OAKEY AERO Lat: -27.40 Lon: 151.74 Height: 405.69 m
Data from the previous 72 hours. | See also: Recent months at Oakey
Date/Time
EST
Temp
°C
App
Temp
°C
Dew
Point
Rel
Hum
%
Delta-T
°C
Wind Press
QNH
hPa
Press
MSL
hPa
Rain
since 9 am
mm
Dir
 
Spd
km/h
Gust
km/h
Spd
kts
Gust
kts
22/01:00pm 17.9 13.6 9.3 57 4.6 W 22 28 12 15 1014.5 - 0.0
22/12:30pm 16.3 11.9 8.8 61 3.9 WSW 22 32 12 17 1015.0 - 0.0
22/12:00pm 15.9 11.4 8.4 61 3.9 WSW 22 30 12 16 1015.7 1014.3 0.0
22/11:30am 15.4 11.2 8.2 62 3.7 WSW 20 28 11 15 1016.1 - 0.0
22/11:00am 15.0 10.8 8.3 64 3.4 WSW 20 30 11 16 1016.6 - 0.0
22/10:30am 14.6 10.0 8.1 65 3.3 SW 22 30 12 16 1016.7 - 0.0
22/10:00am 14.1 10.0 8.7 70 2.8 W 20 30 11 16 1016.9 - 0.0
22/09:30am 14.0 10.5 8.6 70 2.8 SW 17 30 9 16 1017.0 - 0.0
22/09:00am 12.8 9.2 8.3 74 2.3 SW 17 20 9 11 1017.1 1015.8 0.0
22/08:55am 13.1 9.7 9.0 76 2.1 SW 17 26 9 14 1017.1 - 0.0
22/08:30am 12.5 8.6 8.6 77 2.0 WSW 19 24 10 13 1016.9 - 0.0
22/08:00am 12.1 8.6 8.8 80 1.7 WSW 17 22 9 12 1016.9 - 0.0
22/07:30am 11.7 8.2 8.7 82 1.5 W 17 20 9 11 1017.0 - 0.0
22/07:00am 11.3 7.4 8.5 83 1.4 WSW 19 26 10 14 1016.9 - 0.0
22/06:30am 11.1 7.6 8.7 85 1.2 WSW 17 24 9 13 1016.6 - 0.0
22/06:00am 10.9 7.8 8.7 86 1.1 W 15 20 8 11 1016.3 1015.0 0.0
22/05:30am 10.9 7.0 8.7 86 1.1 WSW 19 26 10 14 1016.2 - 0.0
22/05:00am 10.8 7.3 8.9 88 1.0 W 17 22 9 12 1015.9 - 0.0
22/04:30am 10.2 8.3 9.0 92 0.6 W 9 13 5 7 1015.9 - 0.0
22/04:00am 10.0 8.0 8.8 92 0.6 W 9 13 5 7 1015.7 - 0.0
22/03:30am 9.8 7.4 8.6 92 0.6 W 11 13 6 7 1015.8 - 0.0
22/03:00am 9.8 7.4 8.7 93 0.6 W 11 15 6 8 1015.7 1014.3 0.0
22/02:30am 9.3 7.1 7.9 91 0.7 W 9 11 5 6 1015.9 - 0.0
22/02:00am 9.1 6.9 7.9 92 0.6 WSW 9 13 5 7 1016.1 - 0.0
22/01:33am 8.0 4.8 6.8 92 0.6 W 13 17 7 9 1016.4 - 0.0
22/01:30am 7.9 4.6 6.5 91 0.7 WNW 13 17 7 9 1016.5 - 0.0
22/01:00am 7.1 5.9 4.8 85 1.0 CALM 0 0 0 0 1016.7 - 0.0
22/12:30am 8.2 6.5 5.8 85 1.1 WSW 4 6 2 3 1017.0 - 0.0
22/12:00am 8.7 6.6 6.5 86 1.0 WSW 7 9 4 5 1017.4 1016.1 0.0
 
Date/Time
EST
Temp
°C
App
Temp
°C
Dew
Point
Rel
Hum
%
Delta-T
°C
Wind Press
QNH
hPa
Press
MSL
hPa
Rain
since 9 am
mm
Dir
 
Spd
km/h
Gust
km/h
Spd
kts
Gust
kts
21/11:30pm 8.1 6.1 6.2 88 0.9 W 6 7 3 4 1017.7 - 0.0
21/11:00pm 6.7 4.8 5.0 89 0.8 N 4 6 2 3 1017.9 - 0.0
21/10:30pm 6.9 4.0 4.6 85 1.0 W 9 9 5 5 1018.3 - 0.0
21/10:00pm 7.6 4.7 4.9 83 1.2 W 9 11 5 6 1018.5 - 0.0
21/09:30pm 8.0 4.8 4.9 81 1.4 W 11 15 6 8 1018.6 - 0.0
21/09:00pm 8.4 5.7 5.5 82 1.3 W 9 11 5 6 1018.6 1017.3 0.0
21/08:30pm 8.2 5.4 5.3 82 1.3 W 9 11 5 6 1018.5 - 0.0
21/08:00pm 8.6 5.4 5.2 79 1.6 W 11 13 6 7 1018.5 - 0.0
21/07:30pm 9.2 5.7 5.4 77 1.8 W 13 13 7 7 1018.5 - 0.0
21/07:00pm 9.9 6.0 5.5 74 2.1 W 15 17 8 9 1018.3 - 0.0
21/06:30pm 11.0 6.8 5.7 70 2.5 W 17 20 9 11 1017.9 - 0.0
21/06:00pm 11.7 7.5 5.6 66 2.9 W 17 20 9 11 1017.8 1016.5 0.0
21/05:30pm 13.5 8.6 5.2 57 4.0 WSW 20 26 11 14 1017.6 - 0.0
21/05:00pm 14.7 9.3 4.7 51 4.8 W 22 30 12 16 1017.5 - 0.0
21/04:30pm 15.7 10.1 5.6 51 4.9 WSW 24 35 13 19 1017.3 - 0.0
21/03:30pm 16.2 9.8 5.2 48 5.4 WSW 28 37 15 20 1017.3 - 0.0
21/03:00pm 16.4 9.7 5.4 48 5.4 WSW 30 39 16 21 1017.3 1016.0 0.0
21/02:30pm 16.2 10.2 5.2 48 5.4 WSW 26 35 14 19 1017.1 - 0.0
21/02:00pm 16.4 11.0 6.2 51 5.1 WSW 24 37 13 20 1017.2 - 0.0
21/01:30pm 15.9 9.9 5.5 50 5.1 W 26 33 14 18 1017.4 - 0.0
21/01:00pm 14.0 8.0 5.1 55 4.3 W 26 32 14 17 1017.9 - 0.0
21/12:30pm 14.9 9.0 6.0 55 4.4 W 26 37 14 20 1018.5 - 0.0
21/12:00pm 13.3 8.2 5.9 61 3.6 WNW 22 35 12 19 1018.8 1017.5 0.0
21/11:30am 11.8 8.9 6.3 69 2.7 W 11 20 6 11 1019.4 - 0.0
21/11:00am 10.9 6.8 6.3 73 2.2 WNW 17 22 9 12 1020.0 - 0.0
21/10:30am 9.9 5.4 7.0 82 1.4 W 20 28 11 15 1020.2 - 0.0
21/10:00am 8.8 4.6 7.3 90 0.7 W 19 24 10 13 1020.5 - 0.0
21/09:30am 8.2 3.9 7.1 93 0.5 W 19 24 10 13 1020.4 - 0.0
21/09:00am 8.1 3.3 7.3 95 0.4 WSW 22 28 12 15 1020.6 1019.4 1.8
21/08:30am 7.9 4.0 7.1 95 0.4 W 17 20 9 11 1020.4 - 1.8
21/08:00am 7.3 4.4 6.4 94 0.4 W 11 22 6 12 1020.2 - 1.8
21/07:30am 7.0 4.4 6.1 94 0.4 WNW 9 11 5 6 1019.9 - 1.8
21/07:00am 6.2 3.5 5.6 96 0.3 WNW 9 13 5 7 1019.5 - 1.8
21/06:30am 4.9 3.2 4.2 95 0.3 WNW 2 9 1 5 1019.5 - 1.8
21/06:00am 4.9 2.3 4.0 94 0.4 W 7 11 4 6 1019.4 1018.1 1.8
21/05:30am 5.6 2.0 4.9 95 0.3 W 13 15 7 8 1019.2 - 1.8
21/05:00am 5.7 2.8 4.8 94 0.4 W 9 11 5 6 1019.1 - 1.8
21/04:30am 5.9 2.3 5.0 94 0.4 WNW 13 13 7 7 1018.8 - 1.8
21/04:00am 6.1 3.3 5.2 94 0.4 NNW 9 11 5 6 1018.6 - 1.8
21/03:30am 6.9 4.7 6.2 95 0.3 NW 7 9 4 5 1018.8 - 1.8
21/03:00am 6.7 4.5 5.5 92 0.5 WNW 6 7 3 4 1018.8 1017.5 1.8
21/02:30am 7.5 5.3 6.4 93 0.5 NW 7 7 4 4 1018.8 - 1.8
21/02:00am 7.8 5.7 6.7 93 0.5 WNW 7 9 4 5 1019.4 - 1.8
21/01:30am 8.0 5.2 6.9 93 0.5 WNW 11 13 6 7 1019.8 - 1.6
21/01:00am 8.5 6.1 7.0 90 0.7 WNW 9 11 5 6 1019.9 - 1.6
21/12:30am 9.2 6.6 7.8 91 0.7 WNW 11 15 6 8 1020.0 - 1.6
21/12:00am 9.2 7.0 7.8 91 0.7 WNW 9 11 5 6 1020.0 1018.7 1.6
 
Date/Time
EST
Temp
°C
App
Temp
°C
Dew
Point
Rel
Hum
%
Delta-T
°C
Wind Press
QNH
hPa
Press
MSL
hPa
Rain
since 9 am
mm
Dir
 
Spd
km/h
Gust
km/h
Spd
kts
Gust
kts
20/11:30pm 9.5 7.2 7.6 88 0.9 W 9 11 5 6 1020.0 - 1.6
20/11:00pm 10.2 7.7 8.1 87 1.0 W 11 15 6 8 1020.2 - 1.6
20/10:30pm 11.2 8.4 8.4 83 1.4 W 13 19 7 10 1020.4 - 1.6
20/10:00pm 11.4 9.0 8.8 84 1.3 W 11 15 6 8 1020.6 - 1.6
20/09:30pm 11.6 8.8 8.6 82 1.5 W 13 19 7 10 1020.6 - 1.6
20/09:00pm 11.6 8.4 8.3 80 1.7 W 15 19 8 10 1021.3 1020.0 1.6
20/08:30pm 11.6 7.3 7.9 78 1.8 W 20 26 11 14 1020.9 - 1.6
20/08:00pm 11.8 8.3 8.8 82 1.5 W 17 20 9 11 1020.4 - 1.6
20/07:30pm 12.0 8.3 9.4 84 1.3 W 19 24 10 13 1020.9 - 1.6
20/07:00pm 12.2 8.4 9.2 82 1.5 W 19 24 10 13 1020.4 - 1.6
20/06:30pm 12.5 8.9 9.7 83 1.5 WSW 19 22 10 12 1019.7 - 1.6
20/06:00pm 12.7 10.8 10.4 86 1.2 W 11 13 6 7 1019.7 1018.4 1.6
20/05:30pm 12.7 9.5 10.1 84 1.4 W 17 26 9 14 1019.6 - 1.6
20/05:00pm 13.1 10.9 10.8 86 1.2 SW 13 17 7 9 1019.5 - 1.6
20/04:30pm 13.3 9.8 10.8 85 1.3 W 20 30 11 16 1019.7 - 1.4
20/04:00pm 14.0 11.2 11.2 83 1.5 W 17 22 9 12 1019.1 - 1.2
20/03:30pm 14.1 10.5 11.8 86 1.3 W 22 28 12 15 1019.2 - 1.2
20/03:00pm 14.3 10.3 11.8 85 1.4 W 24 30 13 16 1019.3 1018.0 1.0
20/02:48pm 14.7 11.3 12.4 86 1.3 W 22 32 12 17 1019.3 - 1.0
20/02:30pm 14.8 12.6 12.1 84 1.5 W 15 20 8 11 1018.9 - 1.0
20/02:00pm 15.3 11.4 12.2 82 1.7 W 24 32 13 17 1018.9 - 0.6
20/01:30pm 15.6 13.4 13.3 86 1.3 W 17 22 9 12 1018.8 - 0.6
20/01:00pm 15.7 13.7 13.9 89 1.0 W 17 20 9 11 1019.3 - 0.6
20/12:30pm 15.9 13.2 13.6 86 1.3 WSW 20 26 11 14 1019.6 - 0.6
20/12:00pm 15.7 13.1 13.9 89 1.0 W 20 28 11 15 1019.8 1018.5 0.6
20/11:30am 15.5 13.7 14.4 93 0.6 W 17 24 9 13 1020.4 - 0.6
20/11:00am 15.3 12.8 14.2 93 0.6 W 20 26 11 14 1020.6 - 0.6
20/10:30am 15.4 13.6 14.4 94 0.6 W 17 20 9 11 1020.9 - 0.6
20/10:00am 15.1 12.6 14.1 94 0.6 W 20 24 11 13 1020.7 - 0.4
20/09:30am 15.5 13.7 14.5 94 0.6 W 17 20 9 11 1020.9 - 0.2
20/09:00am 15.2 12.9 14.2 94 0.6 W 19 22 10 12 1021.3 1020.0 9.2
20/08:30am 15.7 14.7 14.7 94 0.6 WSW 13 17 7 9 1021.0 - 8.8
20/08:00am 15.6 13.3 14.6 94 0.6 WSW 20 26 11 14 1020.7 - 8.8
20/07:30am 16.1 14.2 15.1 94 0.6 W 19 28 10 15 1020.6 - 8.8
20/07:00am 16.6 15.7 15.8 95 0.5 WSW 15 19 8 10 1020.4 - 8.8
20/06:30am 16.5 15.9 15.7 95 0.5 WSW 13 17 7 9 1020.2 - 8.6
20/06:00am 16.5 16.0 15.9 96 0.4 W 13 17 7 9 1020.4 1019.2 8.6
20/05:33am 16.5 16.0 15.9 96 0.4 W 13 17 7 9 1020.0 - 8.4
20/05:30am 16.6 16.1 16.0 96 0.4 W 13 15 7 8 1020.0 - 8.4
20/05:00am 16.7 17.3 15.9 95 0.5 NW 7 7 4 4 1019.6 - 8.2
20/04:30am 16.7 17.3 15.9 95 0.5 W 7 11 4 6 1019.0 - 8.0
20/04:00am 16.9 16.5 16.1 95 0.5 WSW 13 15 7 8 1019.6 - 8.0
20/03:30am 17.1 16.0 16.3 95 0.5 W 17 20 9 11 1019.6 - 7.6
20/03:00am 17.1 17.9 16.3 95 0.5 W 7 11 4 6 1019.2 1017.9 7.4
20/02:52am 17.1 18.1 16.3 95 0.5 W 6 7 3 4 1019.1 - 7.4
20/02:30am 17.1 19.1 16.1 94 0.6 CALM 0 0 0 0 1019.3 - 7.0
20/02:03am 17.1 17.9 16.3 95 0.5 W 7 9 4 5 1019.8 - 6.6
20/02:00am 17.1 17.9 16.3 95 0.5 W 7 9 4 5 1019.9 - 6.4
20/01:44am 17.2 17.9 16.2 94 0.6 W 7 9 4 5 1020.2 - 6.0
20/01:43am 17.2 17.9 16.2 94 0.6 W 7 9 4 5 1020.3 - 5.8
20/01:30am 17.2 17.5 16.1 93 0.7 W 9 11 5 6 1020.5 - 5.2
20/01:28am 17.2 17.5 16.1 93 0.7 W 9 11 5 6 1020.6 - 5.0
20/01:00am 17.4 18.1 16.1 92 0.8 SW 7 11 4 6 1020.2 - 4.2
20/12:30am 17.5 17.4 16.0 91 0.9 S 11 15 6 8 1020.1 - 3.8
20/12:00am 17.6 17.2 16.3 92 0.8 SW 13 15 7 8 1020.5 1019.3 3.2
 
Date/Time
EST
Temp
°C
App
Temp
°C
Dew
Point
Rel
Hum
%
Delta-T
°C
Wind Press
QNH
hPa
Press
MSL
hPa
Rain
since 9 am
mm
Dir
 
Spd
km/h
Gust
km/h
Spd
kts
Gust
kts
19/11:30pm 18.0 17.7 16.5 91 0.9 SW 13 19 7 10 1020.6 - 2.4
19/11:00pm 18.4 18.4 17.1 92 0.8 SW 13 17 7 9 1021.0 - 2.2
19/10:43pm 18.6 18.5 16.9 90 1.0 SW 13 17 7 9 1021.1 - 2.0
19/10:30pm 18.8 18.8 17.3 91 0.9 SW 13 17 7 9 1021.0 - 1.8
19/10:05pm 19.0 20.1 18.0 94 0.6 WSW 9 13 5 7 1021.0 - 1.6
19/10:00pm 19.0 20.4 17.8 93 0.7 WSW 7 11 4 6 1021.0 - 1.6
19/09:30pm 19.1 19.8 17.9 93 0.8 WSW 11 13 6 7 1020.6 - 1.6
19/09:00pm 19.2 19.9 18.0 93 0.8 SW 11 13 6 7 1020.5 1019.3 1.6
19/08:30pm 19.2 20.6 17.9 92 0.8 SW 7 7 4 4 1020.6 - 1.6
19/08:00pm 19.5 21.2 18.0 91 0.9 WSW 6 7 3 4 1020.7 - 0.8
19/07:30pm 19.7 20.3 17.8 89 1.2 WSW 11 15 6 8 1020.3 - 0.2
19/07:00pm 20.1 20.0 16.9 82 2.0 W 13 19 7 10 1020.0 - 0.0
19/06:30pm 20.7 19.7 16.5 77 2.6 W 17 20 9 11 1019.8 - 0.0
19/06:00pm 21.2 20.0 16.0 72 3.2 W 17 20 9 11 1019.7 1018.4 0.0
19/05:30pm 21.5 20.1 15.6 69 3.6 WSW 17 20 9 11 1019.2 - 0.0
19/05:00pm 21.5 20.7 16.2 72 3.3 W 15 20 8 11 1018.9 - 0.0
19/04:30pm 22.0 21.3 16.3 70 3.5 WSW 15 19 8 10 1018.7 - 0.0
19/04:00pm 22.4 20.4 16.4 69 3.7 WSW 22 30 12 16 1018.6 - 0.0
19/03:30pm 23.4 20.9 16.2 64 4.5 W 24 32 13 17 1018.6 - 0.0
19/03:00pm 24.3 22.9 15.5 58 5.4 W 17 24 9 13 1018.0 1016.7 0.0
19/02:30pm 25.4 23.3 15.1 53 6.3 W 20 30 11 16 1018.5 - 0.0
19/02:00pm 25.5 23.2 14.0 49 6.9 WNW 19 24 10 13 1018.5 - 0.0

Other Formats:

Comma delimited format used in spreadsheet applications
http://www.bom.gov.au/fwo/IDQ60801/IDQ60801.94552.axf

JavaScript Object Notation format (JSON) in row-major order
http://www.bom.gov.au/fwo/IDQ60801/IDQ60801.94552.json